Simultaneous Nadir Overpasses (SNOs) Predictions

Prediction of SNOs between GOES-17 and METOP-B Satellite Orbit:

Table of predicted SNOs for the next 14.0 days since TLE Epoch: 7/24/2020
Index Date Time (GOES-17) GOES-17 Lat,Lon METOP-B Lat,Lon Distance(km) Time Diff (sec)
1 07/25/2020 06:34:39 0.00,-137.19 0.14,-136.46 83.23 80
2 07/26/2020 18:53:31 -0.00,-137.19 0.88,-141.02 436.27 80
3 07/27/2020 18:35:31 -0.00,-137.19 -0.26,-136.03 132.83 80
4 07/29/2020 06:54:30 0.00,-137.19 -0.76,-140.62 391.51 80
5 07/30/2020 06:31:11 0.01,-137.18 0.37,-135.63 177.04 80
6 07/31/2020 18:50:02 -0.01,-137.17 0.64,-140.19 343.90 80
7 08/01/2020 18:32:02 -0.01,-137.16 -0.44,-135.19 224.41 80
8 08/03/2020 06:48:21 0.01,-137.14 -0.58,-139.78 300.86 80
9 08/04/2020 06:30:22 0.01,-137.13 0.56,-134.79 267.29 80
10 08/05/2020 18:46:32 -0.01,-137.12 0.51,-139.34 254.18 80
11 08/06/2020 18:28:32 -0.01,-137.11 -0.62,-134.35 313.90 80
